484  
ASUS43 KIWX 232010  
RWRIWX  
 
KIWX WEATHER ROUNDUP  
NATIONAL WEATHER SERVICE NORTHERN INDIANA  
300 PM EST SUN FEB 23 2020  
 
NOTE: "FAIR" INDICATES FEW OR NO CLOUDS BELOW 12,000 FEET WITH NO  
SIGNIFICANT WEATHER AND/OR S TO VISIBILITY
.  
 
* THESE STATIONS ARE NOT UNDER NWS QUALITY CONTROL. THEY ALSO MAY NOT  
REPORT WEATHER SUCH AS PRECIPITATION OR FOG.
 
 
INZ001>027-232100-  
NORTHERN INDIANA  
 
CITY SKY/WX TMP DP RH WIND PRES REMARKS
 
GARY* MOSUNNY 55 30 38 SW14 29.93F  
VALPARAISO FAIR 55 35 47 SW18G24 29.93F  
MICHIGAN CITY* FAIR 54 43 66 SW14 29.93S  
LAPORTE* FAIR 52 36 54 SW14 29.93F  
KNOX* FAIR 54 34 47 S17 29.94F  
SOUTH BEND FAIR 54 34 46 SW16G23 29.93F  
GOSHEN FAIR 52 33 48 SW16 29.93F  
MONTICELLO* FAIR 53 32 44 SW12G17 29.96F  
LOGANSPORT* FAIR 54 34 47 SW14 29.98F  
ROCHESTER* FAIR 54 32 43 SW10G16 29.96F  
WARSAW* FAIR 52 32 46 SW13G21 29.95S  
KENDALLVILLE* FAIR 51 30 44 SW15G21 29.94F  
AUBURN* FAIR 52 32 46 S8G20 29.95F  
FORT WAYNE FAIR 51 32 48 SW17 29.97F  
HUNTINGTON* N/A 52 31 44 SW9 29.97F  
PERU/GRISSOM FAIR 54 34 47 SW18 29.96F  
 

 
INZ028>050-232100-  
CENTRAL INDIANA  
 
CITY SKY/WX TMP DP RH WIND PRES REMARKS
 
LAFAYETTE FAIR 54 33 45 SW12G20 29.98F  
KOKOMO* FAIR 52 35 52 SW18 29.99F  
MUNCIE* FAIR 53 30 41 S13G23 29.99F  
INDIANAPOLIS FAIR 53 30 41 S13 30.02F  
 

 
MIZ043>046-050>051-056>058-064>065-071>073-077>080-232100-  
SOUTHWEST LOWER MICHIGAN  
 
CITY SKY/WX TMP DP RH WIND PRES REMARKS
 
BATTLE CREEK FAIR 50 32 50 SW16G26 29.90F  
BENTON HARBOR FAIR 50 31 48 W14 29.92F  
COLDWATER* FAIR 50 32 50 SW13G18 29.91F  
HILLSDALE* FAIR 49 32 51 SW10 29.90F  
HOLLAND FAIR 46 31 55 SW23G31 29.90F  
GRAND RAPIDS FAIR 46 31 55 SW18 29.88F  
KALAMAZOO FAIR 52 31 44 SW10 29.91F  
STURGIS* FAIR 52 34 50 SW16 29.91F  
THREE RIVERS* FAIR 51 32 48 SW13G22 29.92F  
 

 
OHZ001>008-015>018-024>025-232100-  
NORTHWEST OHIO  
 
CITY SKY/WX TMP DP RH WIND PRES REMARKS
 
DEFIANCE FAIR 52 31 44 SW13 29.96F  
FINDLAY FAIR 52 28 39 S17 29.97F  
OTTAWA* FAIR 52 21 30 SW18 29.99F  
TOLEDO EXPRESS FAIR 54 26 34 SW12G23 29.95F  
LIMA FAIR 49 27 42 S15G23 29.98F  
 

 
AND FOR LAKE MICHIGAN COASTAL AND OPEN LAKE BUOY OBSERVATIONS  
 
STATION/POSITION TEMP WIND PRES VSBY WAVE
 
AIR SEA DIR/SP/G HT/PER  
(F) (DEG/KT/KT) (MB) (MI) (FT/S)  
CALUMET HARBOR 52 220/ 10/ 15 1012.4F  
MICHIGAN CITY 45 250/ 12/ 12 N/A  
 

 

 
 
 
CLICK HERE TO GO TO PREVIOUS BULLETINS.

The Nexlab IN Page
The Nexlab OH Page
The Nexlab MI Page Main Text Page